Regional Weather Roundup
Issued by NWS Newport/Morehead, NC

Current Version | Previous Version | Text Only | Print | Product List | Glossary On
Versions: 1 2 3 4 5 6 7 8 9 10 11 12 13 14 15 16 17 18 19 20 21 22 23 24 25 26 27 28 29 30 31 32 33 34 35 36 37 38 39 40 41 42 43 44 45 46 47 48 49 50
000
ASUS42 KMHX 041024
RWRMHX
WEATHER ROUNDUP FOR EASTERN NORTH CAROLINA
NATIONAL WEATHER SERVICE NEWPORT/MOREHEAD CITY NC
500 AM EST WED MAR 04 2015

NOTE: "FAIR" INDICATES FEW OR NO CLOUDS BELOW 12,000 FEET
WITH NO SIGNIFICANT WEATHER AND/OR OBSTRUCTIONS TO VISIBILITY

NCZ015>017-031-032-045>047-102-103-041100-
NORTH COAST

CITY           SKY/WX    TMP DP  RH WIND       PRES   REMARKS
EDENTON        FOG       47  47  99 W7        30.01R VSB 1/2
ELIZABETH CITY FOG       52  52 100 SW12      29.99R VSB 1
KITTY HAWK     CLOUDY    60  60 100 SW10G20   29.97S FOG
MANTEO         CLOUDY    57  57 100 SW21G26   29.99R FOG

$$

NCZ045>047-081-094-103-104-041100-
CENTRAL COAST

CITY           SKY/WX    TMP DP  RH WIND       PRES   REMARKS
FRISCO         FOG       55  55 100 SW13      30.03R VSB 1/4
SWANQUARTER      N/A     52 N/A N/A S3        29.97S

$$

NCZ095-097-098-100-101-041100-
SOUTHERN COAST

CITY           SKY/WX    TMP DP  RH WIND       PRES   REMARKS
BEAUFORT       FOG       54  54 100 SW12      30.04F VSB 3/4
CEDAR ISLAND     N/A     61 N/A N/A S8G21     30.06S
JACKSONVILLE   FOG       58  58 100 SW10      30.03F VSB 1/8
PINEY ISLAND     N/A    N/A N/A N/A MISG      30.03S
WILMINGTON     FOG       57  57 100 SW10      30.06S VSB 1/4


$$

NCZ011>013-027>030-043-044-078>080-089-090>093-098-041100-
COASTAL PLAIN

CITY           SKY/WX    TMP DP  RH WIND       PRES   REMARKS
AHOSKIE        FOG       43  42  98 SW5       29.98S VSB 3/4
CLINTON        FOG       44  44 100 CALM      30.04S VSB 1/2
ELIZABETHTOWN  DRIZZLE   54  54 100 SW9       30.04F
GOLDSBORO      FOG       43  43 100 W5        30.01R VSB 3/4
GREENVILLE     FOG       45  45 100 SW7       30.03S VSB 3/4
HAVELOCK       FOG       60  59  96 SW18      30.04S VSB 1/2
KENANSVILLE    FOG       48  48  99 SW5       30.04S VSB 3/4
KINSTON        FOG       46  46 100 SW7       30.03R VSB 1/2
NEW BERN       CLOUDY    60  58  92 SW9       30.03S
RICHLANDS      CLOUDY    52  48  87 SW8       30.05R VSB 1/4
ROCKY MOUNT    FOG       44  43  96 S10       30.00F VSB 3/4
WASHINGTON     FOG       46  45  99 SW6       30.02S VSB 1/4
WHITEVILLE     FOG       52  51  97 S8        30.06F VSB 3/4

$$

AMZ130-135-150-152-154-156-158-170-250-252-270-ANZ085-086-088-633-658-670-041100-
MARINE OBSERVATIONS

STATION/POSITION TIME  TEMP    WIND        PRES    WAVE   SWELL
                       AIR SEA DIR/SP/G            HT/PER HT/PER
                 (UTC) (F)     (DEG/KT/KT) (MB)    (FT/S) (FT/S)
CHESAPEAKE LIGHT 1000   45     220/ 26/ 28 1013.6
64 E VA BEACH    0950   57 56  220/ 21/ 25 1013.4    7/ 7   3/ 9
DUCK             1000   52 34  230/ 10/ 13 1014.2
2 E DUCK         0911      35                N/A     4/ 7
10 NE DUCK       0922      37                N/A     6/ 7
OREGON INLET     1000   49 43  210/ 14/ 16 1015.9
HATTERAS CG      1000   54 44  220/ 10/ 13 1017.0
CAPE LOOKOUT     1000   58     200/ 11/ 13 1017.2
BEAUFORT LAB     1000   54 44  220/  7/  9 1016.3
27 SE WRIGHTSVLE NOT AVBL
5 SE WRIGHTSVLE  NOT AVBL
225 S CAPE HAT   0950   71 72  200/ 17/ 23 1021.8    6/ 9   3/ 9
41 SE CHARLESTON 0950   70 68  200/ 10/ 12 1018.6    4/ 8   3/ 8

$$



USA.gov is the U.S. government's official web portal to all federal, state and local government web resources and services.